Regional Weather Roundup
Issued by NWS

Home | Current Version | Previous Version | Graphics & Text | Print | Product List | Glossary On
Versions: 1 2 3 4 5 6 7 8 9 10 11 12 13 14 15 16 17 18 19 20 21 22 23 24 25 26 27 28 29 30 31 32 33 34 35 36 37 38 39 40 41 42 43 44 45 46 47 48 49 50
370
ASUS45 KBOU 011607
RWRCO

WEATHER ROUNDUP FOR COLORADO
NATIONAL WEATHER SERVICE DENVER/BOULDER CO
1000 AM MDT SUN MAY 01 2016

NOTE: "FAIR" INDICATES FEW OR NO CLOUDS BELOW 12000 FEET WITH NO
SIGNIFICANT WEATHER AND/OR OBSTRUCTIONS TO VISIBILITY.

COZ001>005-013-030-031-011700-
...NORTHWEST COLORADO...

CITY           SKY/WX    TMP DP  RH WIND       PRES   REMARKS
CRAIG            N/A     43  21  41 E25G33    30.13F
HAYDEN         FAIR      39  19  45 E23G29    30.15F
MEEKER         FAIR      47  24  40 NE10      30.09S
MOUNT WERNER   NOT AVBL
STEAMBOAT SPGS FAIR      37  21  52 NE18      30.16F
WALDEN         FAIR      32  19  59 NE16G24   30.23F WCI  21
$$

COZ006>008-011-011700-
...WEST CENTRAL VALLEYS...

CITY           SKY/WX    TMP DP  RH WIND       PRES   REMARKS
GRAND JUNCTION FAIR      50  25  37 VRB3      30.04R
MONTROSE       CLOUDY    44  27  51 SE9G21    30.08R
EAGLE          SUNNY     43  19  39 CALM      30.16F
RIFLE          FAIR      50  20  30 E18G25    30.06F
DELTA          NOT AVBL
NUCLA          NOT AVBL
$$

COZ017>023-064>068-011700-
...SOUTHWEST COLORADO...

CITY           SKY/WX    TMP DP  RH WIND       PRES   REMARKS
DURANGO        LGT RAIN  39  36  89 E6        30.05R
CORTEZ         CLOUDY    42  36  79 E13G20    30.02R
PAGOSA SPRINGS LGT SNOW  34  31  90 NE10G16   30.09S WCI  26
TELLURIDE      CLOUDY    37  30  76 W6        30.05F
WOLF CREEK PAS LGT SNOW  16  16 100 E147      30.17R VSB 3/4 WCI -13
$$

COZ009-010-012-014-032>034-037-058>063-011700-
...CENTRAL COLORADO...

CITY           SKY/WX    TMP DP  RH WIND       PRES   REMARKS
ASPEN          FAIR      42  16  34 S12       30.09S
BUENA VISTA    CLOUDY    31  21  66 CALM      30.26S
COPPER MTN     NOT AVBL
BERTHOUD PASS  CLOUDY    10   1  67 NE5       30.18F WCI   2
COTTONWOOD PAS FLURRIES  28  21  74 E7        30.25R WCI  21
GUNNISON       FAIR      34  21  60 SE21G28   30.18R WCI  22
KREMMLING      FAIR      37  19  48 E17G23    30.21S
LEADVILLE      CLOUDY    22  16  78 S22       30.18S WCI   6
MONARCH PASS   CLOUDY    14  10  85 MISG      30.24R
SALIDA         CLOUDY    33  27  80 SE5       30.34S WCI  28
SUNLIGHT       FAIR     N/A N/A N/A NE7       30.15S
WILKERSON PASS FOG      N/A N/A N/A E7        30.26R VSB 1/4
$$

COZ069>075-011700-
...SAN LUIS VALLEY/SANGRE DE CRISTO MOUNTAINS...

CITY           SKY/WX    TMP DP  RH WIND       PRES   REMARKS
ALAMOSA        CLOUDY    34  27  75 N7        30.16S WCI  28
LA VETA PASS   SNOW      21  19  93 MISG      30.22R VSB 1/4
SAGUACHE       CLOUDY    32  25  74 CALM      30.19S
$$

COZ035-036-038>040-011700-
...NORTHERN COLORADO FRONT RANGE...

CITY           SKY/WX    TMP DP  RH WIND       PRES   REMARKS
DENVER INTL AP FLURRIES  34  30  85 N8        30.32S WCI  27
DMNS CITY PARK   N/A     34  33  95 NW5       30.34R WCI  30
AURORA         LGT RAIN  32  32 100 N8        30.33S WCI  25
FRONT RANGE AP CLOUDY    32  32 100 N9        30.33R WCI  24
ERIE MUNI ARPT FLURRIES  34  33  95 N9        30.35R WCI  27
BOULDER MUN AP FLURRIES  34  32  93 NW5       30.34S WCI  30
CENTENNIAL     LGT SNOW  32  31  96 N12       30.32R FOG     WCI  23
BROOMFIELD     LGT SNOW  34  32  93 NW10      30.33S VSB 1   WCI  26
FORT COLLINS   PTSUNNY   37  34  87 N10       30.35S
LONGMONT       LGT SNOW  38  33  82 N6        30.37R
$$

COZ041-046-047-076>085-087-088-011700-
...PIKES PEAK/PALMER DIVIDE AND SOUTHERN FOOTHILLS...

CITY           SKY/WX    TMP DP  RH WIND       PRES   REMARKS
COLO. SPRINGS  FLURRIES  34  28  79 N21       30.30R WCI  22
A. F. ACADEMY  MIX PCPN  32  28  86 N9        30.30R FOG     WCI  24
SCHRIEVER AFB  NOT AVBL
ELLICOTT       NOT AVBL
FALCON         CLOUDY    33  27  77 N13G20    30.30R WCI  24
FORT CARSON    MIX PCPN  38  28  67 N24       30.27S
LIMON          CLOUDY    32  31  96 N16       30.30R WCI  21
MONUMENT HILL  CLOUDY    28  27  93 N13       30.31R WCI  18
TRINIDAD       CLOUDY    36  30  79 N20       30.27F
$$

COZ042>045-048>051-090-091-011700-
...NORTHEAST COLORADO...

CITY           SKY/WX    TMP DP  RH WIND       PRES   REMARKS
GREELEY ARPT   CLOUDY    39  32  75 NE13      30.34S
AKRON          CLOUDY    34  32  92 N13       30.30S WCI  25
BURLINGTON     CLOUDY    38  34  85 N24G32    30.25R
WRAY           NOT AVBL
STERLING       CLOUDY    41  36  81 N16       30.31R
HOLYOKE        NOT AVBL
FORT MORGAN    CLOUDY    39  34  82 N14       30.32F
$$

COZ086-089-092>099-011700-
...SOUTHEAST COLORADO...

CITY           SKY/WX    TMP DP  RH WIND       PRES   REMARKS
PUEBLO         CLOUDY    44  29  55 NE23G30   30.29S
LA JUNTA       CLOUDY    43  32  65 N20       30.28S
LAMAR          CLOUDY    43  33  68 N22       30.22F
SPRINGFIELD      N/A     39  31  72 N35G43    30.18S
$$




USA.gov is the U.S. government's official web portal to all federal, state and local government web resources and services.